Regional Weather Roundup
Issued by NWS

Home | Current Version | Previous Version | Text Only | Print | Product List | Glossary On
Versions: 1 2 3 4 5 6 7 8 9 10 11 12 13 14 15 16 17 18 19 20 21 22 23 24 25 26 27 28 29 30 31 32 33 34 35 36 37 38 39 40 41 42 43 44 45 46 47 48 49 50
000
ASUS43 KTOP 021408
RWRKS

WEATHER ROUNDUP FOR KANSAS
NATIONAL WEATHER SERVICE GOODLAND KS
900 AM CDT WED SEP 02 2015

NOTE:  "FAIR" INDICATES FEW OR NO CLOUDS BELOW 12,000 FEET WITH NO
SIGNIFICANT WEATHER AND/OR OBSTRUCTIONS TO VISIBILITY.

KSZ001>006-013>018-027>032-041>047-021500-
NORTHWEST KANSAS

CITY           SKY/WX    TMP DP  RH WIND       PRES   REMARKS
GOODLAND       SUNNY     73  55  53 W6        29.98S
HAYS           SUNNY     77  57  50 S15       29.94S
HILL CITY      SUNNY     76  58  53 SW8       29.93S
RUSSELL        SUNNY     78  61  55 S20G25    29.93S
$$

KSZ061>065-074>080-084>089-021500-
SOUTHWEST KANSAS

CITY           SKY/WX    TMP DP  RH WIND       PRES   REMARKS
DODGE CITY     SUNNY     74  57  55 S12       29.98S
ELKHART          N/A     72  56  57 SW9         N/A
GARDEN CITY    SUNNY     72  58  61 S12       29.96S
GREAT BEND     SUNNY     77  61  57 S21G26    29.95F
LIBERAL        SUNNY     77  55  47 SW15G21   30.01S
PRATT          MOSUNNY   75  61  60 MISG      30.00F
$$

KSZ066>073-081>083-090>101-021500-
SOUTHEAST KANSAS

CITY           SKY/WX    TMP DP  RH WIND       PRES   REMARKS
CHANUTE        SUNNY     75  68  78 S14       30.06R
COFFEYVILLE    SUNNY     74  69  85 S9        30.06R
HUTCHINSON     MOSUNNY   77  63  61 S13       29.99S
MEDICINE LODGE   N/A     77  64  64 S9G17     30.00S
NEWTON         MOSUNNY   77  61  57 S16       30.03S
PARSONS        SUNNY     74  69  85 S7        30.06S
WICHITA INTL   MOSUNNY   76  65  68 S15       30.01S
WICHITA JABRA  SUNNY     76  65  68 S16G24    30.01S
WICHITA MCCONL SUNNY     75  62  64 S15       30.02R
WINFIELD       MOSUNNY   77  66  68 S13       30.04S
$$

KSZ007>012-019>026-033>040-048>060-102>105-021500-
NORTHEAST KANSAS

CITY           SKY/WX    TMP DP  RH WIND       PRES   REMARKS
CONCORDIA      SUNNY     77  64  64 S15G22    29.92S
EMPORIA        CLOUDY    74  66  76 S10       30.02R
LAWRENCE       CLOUDY    72  67  84 CALM      30.05R
MANHATTAN      MOSUNNY   78  65  63 S14G21    29.96R
MARYSVILLE     SUNNY    N/A N/A N/A S10G16    29.95S
OLATHE IND     CLOUDY    73  67  81 S7        30.07R
OLATHE EXE     CLOUDY    72  67  84 S6        30.06R
SALINA         MOSUNNY   80  63  55 S14G20    29.94S
TOPEKA BILLARD CLOUDY    73  68  84 S6        30.02S
TOPEKA FORBES  LGT RAIN  72  68  87 S12       30.02F
$$


USA.gov is the U.S. government's official web portal to all federal, state and local government web resources and services.